Kobrin, Belarus

8:57 PM +03 on January 16, 2017 (GMT +0300)
Brest

Weather History for UMBB - July, 2013

Change the Weather History Date:

Sunday, July 7, 2013

  Actual Average Record
Temperature  
Mean Temperature 66 °F -  
Max Temperature 77 °F - - ()
Min Temperature 55 °F - - ()
Cooling Degree Days 1    
Growing Degree Days 16 (Base 50)    
Moisture  
Dew Point 51 °F    
Average Humidity 55    
Maximum Humidity 88    
Minimum Humidity 25    
Precipitation  
Precipitation 0.00 in - - ()
Sea Level Pressure  
Sea Level Pressure 30.33 in    
Wind  
Wind Speed 5 mph ()    
Max Wind Speed 9 mph    
Max Gust Speed -    
Visibility 6.0 miles    
Events      
T = Trace of Precipitation, MM = Missing Value Source: Averaged Metar Reports

Daily Weather History Graph

Daily Weather History Graph

Search for Another Location

Airport or City:

Trip Planner

Search our weather history database for the weather conditions in past years. The results will help you decide how hot, cold, wet, or windy it might be!

Date:

Astronomy

Jul. 07, 2013 Rise Set
Actual Time 5:13 AM +03 9:45 PM +03
Civil Twilight 4:26 AM +03 10:33 PM +03
Nautical Twilight 3:12 AM +03 11:46 PM +03
Astronomical Twilight 2:02 AM +03 12:57 AM +03
Moon 4:42 AM +03 (7/7) 8:46 PM +03 (7/7)
Length of Visible Light 18h 07m
Length of Day
16h 32m
Waning Crescent, 1% of the Moon is Illuminated
Jul 7
Waning Crescent
Jul 8
New
Jul 16
First Quarter
Jul 22
Full
Jul 29
Last Quarter

Hourly Weather History & Observations

Time (+03) Temp. Dew Point Humidity Pressure Visibility Wind Dir Wind Speed Gust Speed Precip Events Conditions
12:00 AM 65 °F 53 °F 55% 30.32 in 6 mi NW 4.5 mph - -  
3:00 AM 61 °F 54 °F 73% 30.34 in 6 mi North 4.5 mph - -  
5:00 AM 57.2 °F 53.6 °F 88% 30.33 in 4.3 mi WNW 4.5 mph - N/A   Unknown
6:00 AM 56 °F 53 °F 88% 30.34 in 6 mi NW 2.2 mph - -   Scattered Clouds
6:00 AM 57.2 °F 53.6 °F 88% 30.33 in 3.7 mi WNW 4.5 mph - N/A   Unknown
7:00 AM 57.2 °F 53.6 °F 88% 30.33 in 4.3 mi WNW 6.7 mph - N/A   Unknown
8:00 AM 59.0 °F 55.4 °F 88% 30.33 in 5.6 mi NW 6.7 mph - N/A   Unknown
9:00 AM 65 °F 52 °F 54% 30.35 in 6 mi NNW 6.7 mph - -  
9:00 AM 62.6 °F 53.6 °F 72% 30.33 in - WNW 4.5 mph - N/A   Clear
10:00 AM 66.2 °F 55.4 °F 68% 30.36 in - WNW 6.7 mph - N/A   Clear
11:00 AM 69.8 °F 55.4 °F 60% 30.36 in - WNW 8.9 mph - N/A   Clear
12:00 PM 70 °F 51 °F 41% 30.35 in 7 mi WNW 6.7 mph - -   Scattered Clouds
12:00 PM 71.6 °F 53.6 °F 53% 30.33 in 6.2 mi NW 8.9 mph - N/A   Scattered Clouds
1:00 PM 71.6 °F 50.0 °F 46% 30.33 in 6.2 mi NW 8.9 mph - N/A   Scattered Clouds
1:30 PM 71.6 °F 50.0 °F 46% 30.33 in 6.2 mi NW 6.7 mph - N/A   Scattered Clouds
2:00 PM 73.4 °F 48.2 °F 41% 30.33 in 6.2 mi WNW 6.7 mph - N/A   Scattered Clouds
2:30 PM 73.4 °F 48.2 °F 41% 30.33 in 6.2 mi WNW 6.7 mph - N/A   Scattered Clouds
3:00 PM 74 °F 45 °F 25% 30.33 in 7 mi North 6.7 mph - -   Scattered Clouds
3:00 PM 73.4 °F 48.2 °F 41% 30.33 in 6.2 mi NW 6.7 mph - N/A   Partly Cloudy
3:30 PM 73.4 °F 48.2 °F 41% 30.33 in 6.2 mi NNW 6.7 mph - N/A   Partly Cloudy
4:00 PM 75.2 °F 46.4 °F 36% 30.33 in 6.2 mi WNW 6.7 mph - N/A   Partly Cloudy
4:30 PM 75.2 °F 46.4 °F 36% 30.33 in 6.2 mi WNW 6.7 mph - N/A   Partly Cloudy
5:00 PM 77.0 °F 46.4 °F 34% 30.30 in 6.2 mi NW 8.9 mph - N/A   Partly Cloudy
6:00 PM 76 °F 49 °F 28% 30.29 in 7 mi North 4.5 mph - -   Scattered Clouds
9:00 PM 73 °F 51 °F 36% 30.30 in 7 mi NNW 6.7 mph - -   Partly Cloudy